FW7026 Weather Reports


Display with metric or nautical units.
time (UTC)temp
F
wind
direction
speed
MPH
gust
MPH
rain 1hr
in
rain 24hr
in
rain mn
in
humidity
%
barometer
mb
20260903142129 58 156 5.0 10.0 0.00 0.09 0.09 92 1014.4
20260903141625 58 156 5.0 10.0 0.00 0.09 0.09 92 1014.4
20260903141119 58 156 5.0 10.0 0.00 0.09 0.09 92 1014.4
20260903135421 58 154 0.0 2.0 0.14 0.08 0.08 92 1014.4
20260903134921 58 154 0.0 2.0 0.14 0.08 0.08 92 1014.4
20260903134420 58 154 0.0 2.0 0.14 0.08 0.08 92 1014.4
20260903132723 57 43 0.0 5.0 0.07 0.04 0.04 91 1014.7
20260903132223 57 43 0.0 5.0 0.07 0.04 0.04 91 1014.7
20260903131718 57 43 0.0 5.0 0.07 0.04 0.04 91 1014.7
20260903130027 57 278 0.0 5.0 0.00 0.02 0.02 91 1014.7
20260903125525 57 278 0.0 5.0 0.00 0.02 0.02 91 1014.7
20260903125020 57 278 0.0 5.0 0.00 0.02 0.02 91 1014.7
20260903123323 56 229 5.0 8.0 0.00 0.01 0.01 90 1015.1
20260903122821 56 229 5.0 8.0 0.00 0.01 0.01 90 1015.1
20260903122316 56 229 5.0 8.0 0.00 0.01 0.01 90 1015.1
20260903120624 56 213 0.0 13.0 0.00 0.01 0.01 89 1015.1
20260903120119 56 213 0.0 13.0 0.00 0.01 0.01 89 1015.1
20260903115616 56 213 0.0 13.0 0.00 0.01 0.01 89 1015.1
20260903113929 56 156 0.0 5.0 0.00 0.01 0.01 85 1015.4
20260903113426 56 156 0.0 5.0 0.00 0.01 0.01 85 1015.4
20260903112920 56 156 0.0 5.0 0.00 0.01 0.01 85 1015.4
20260903111226 55 34 0.0 2.0 0.00 0.00 0.00 79 1015.4
20260903110722 55 34 0.0 2.0 0.00 0.00 0.00 79 1015.4
20260903110217 55 34 0.0 2.0 0.00 0.00 0.00 79 1015.4
20260903104526 55 137 0.0 2.0 0.00 0.00 0.00 76 1015.4
20260903104022 55 137 0.0 2.0 0.00 0.00 0.00 76 1015.4
20260903103517 55 137 0.0 2.0 0.00 0.00 0.00 76 1015.4
20260903101827 55 48 0.0 0.0 0.00 0.00 0.00 75 1015.4
20260903101322 55 48 0.0 0.0 0.00 0.00 0.00 75 1015.4
20260903100817 55 48 0.0 0.0 0.00 0.00 0.00 75 1015.4
20260903095128 55 17 0.0 0.0 0.00 0.00 0.00 74 1015.1
20260903094623 55 17 0.0 0.0 0.00 0.00 0.00 74 1015.1
20260903094118 55 17 0.0 0.0 0.00 0.00 0.00 74 1015.1
20260903092419 55 139 0.0 2.0 0.00 0.00 0.00 73 1015.4
20260903091918 55 139 0.0 2.0 0.00 0.00 0.00 73 1015.4
20260903091416 55 139 0.0 2.0 0.00 0.00 0.00 73 1015.4
20260903085726 55 126 0.0 0.0 0.00 0.00 0.00 72 1015.7
20260903085221 55 126 0.0 0.0 0.00 0.00 0.00 72 1015.7
20260903084718 55 126 0.0 0.0 0.00 0.00 0.00 72 1015.7
20260903083022 55 162 0.0 0.0 0.00 0.00 0.00 72 1016.1
20260903082522 55 162 0.0 0.0 0.00 0.00 0.00 72 1016.1
20260903082017 55 162 0.0 0.0 0.00 0.00 0.00 72 1016.1
20260903080327 55 140 0.0 0.0 0.00 0.00 0.00 71 1015.7
20260903075825 55 140 0.0 0.0 0.00 0.00 0.00 71 1015.7
20260903075321 55 140 0.0 0.0 0.00 0.00 0.00 71 1015.7
20260903073626 55 179 0.0 0.0 0.00 0.00 0.00 71 1016.4
20260903073122 55 179 0.0 0.0 0.00 0.00 0.00 71 1016.4
20260903072617 55 179 0.0 0.0 0.00 0.00 0.00 71 1016.4
20260903070926 55 184 0.0 0.0 0.00 0.00 0.00 72 1016.8
20260903070426 55 184 0.0 0.0 0.00 0.00 0.00 72 1016.8
20260903065920 55 184 0.0 0.0 0.00 0.00 0.00 72 1016.8
20260903064228 55 218 0.0 0.0 0.00 0.00 0.00 73 1016.8
20260903063724 55 218 0.0 0.0 0.00 0.00 0.00 73 1016.8
20260903063219 55 218 0.0 0.0 0.00 0.00 0.00 73 1016.8
20260903061526 54 339 0.0 0.0 0.00 0.00 0.00 75 1017.4
20260903061020 54 339 0.0 0.0 0.00 0.00 0.00 75 1017.4
20260903060519 54 339 0.0 0.0 0.00 0.00 0.00 75 1017.4
20260903054820 54 226 0.0 0.0 0.00 0.00 0.00 76 1017.4
20260903054320 54 226 0.0 0.0 0.00 0.00 0.00 76 1017.4
20260903053817 54 226 0.0 0.0 0.00 0.00 0.00 76 1017.4
20260903051933 54 207 0.0 0.0 0.00 0.00 0.00 76 1017.8
20260903051428 54 207 0.0 0.0 0.00 0.00 0.00 76 1017.8
20260903050924 54 186 0.0 0.0 0.00 0.00 0.00 76 1017.8
20260903050421 54 186 0.0 0.0 0.00 0.00 0.00 76 1017.8
20260903045430 54 186 0.0 0.0 0.00 0.00 0.00 76 1017.8
20260903044926 54 186 0.0 0.0 0.00 0.00 0.00 76 1017.8
20260903044421 54 200 0.0 0.0 0.00 0.00 0.00 76 1017.8
20260903043917 54 181 0.0 0.0 0.00 0.00 0.00 75 1017.8
20260903043413 54 181 0.0 0.0 0.00 0.00 0.00 75 1017.8
20260903042911 54 196 0.0 0.0 0.00 0.00 0.00 75 1017.8
20260903042407 54 171 0.0 0.0 0.00 0.00 0.00 75 1017.8
20260903041902 54 171 0.0 0.0 0.00 0.00 0.00 75 1017.8
20260903041358 54 197 0.0 0.0 0.00 0.00 0.00 74 1017.8
20260903040854 54 197 0.0 0.0 0.00 0.00 0.00 74 1017.8
20260903040353 54 182 0.0 0.0 0.00 0.00 0.00 74 1017.8
20260903035849 55 201 0.0 0.0 0.00 0.00 0.00 74 1017.8
20260903035344 55 201 0.0 0.0 0.00 0.00 0.00 74 1017.8
20260903034839 55 135 0.0 0.0 0.00 0.00 0.00 74 1018.2
20260903034335 55 221 0.0 0.0 0.00 0.00 0.00 74 1018.2
20260903033830 55 208 0.0 0.0 0.00 0.00 0.00 73 1017.8
20260903033325 55 150 0.0 0.0 0.00 0.00 0.00 73 1018.2
20260903032824 56 198 0.0 0.0 0.00 0.00 0.00 72 1018.2
20260903032320 56 198 0.0 0.0 0.00 0.00 0.00 72 1018.2
20260903031635 56 207 0.0 0.0 0.00 0.00 0.00 71 1018.2
20260903031130 56 207 0.0 0.0 0.00 0.00 0.00 71 1018.2
20260903030626 56 196 0.0 2.0 0.00 0.00 0.00 71 1018.2
20260903030122 56 195 0.0 0.0 0.00 0.00 0.00 71 1018.5
20260903025616 56 195 0.0 0.0 0.00 0.00 0.00 71 1018.5
20260903025106 55 193 0.0 0.0 0.00 0.00 0.00 74 1018.5
20260903024601 55 193 0.0 0.0 0.00 0.00 0.00 74 1018.5
20260903024055 55 180 0.0 0.0 0.00 0.00 0.00 74 1018.5
20260903023551 54 193 0.0 0.0 0.00 0.00 0.00 74 1018.5
20260903023046 54 193 0.0 0.0 0.00 0.00 0.00 74 1018.5
20260903022545 54 204 0.0 0.0 0.00 0.00 0.00 74 1018.9
20260903022044 54 204 0.0 0.0 0.00 0.00 0.00 74 1018.9
20260903021539 54 204 0.0 0.0 0.00 0.00 0.00 74 1018.9
20260903021033 55 186 0.0 0.0 0.00 0.00 0.00 74 1018.5
20260903020530 54 186 0.0 0.0 0.00 0.00 0.00 74 1018.9
20260903020029 54 196 0.0 0.0 0.00 0.00 0.00 73 1018.5
20260903015525 55 203 0.0 0.0 0.00 0.00 0.00 73 1018.5
20260903015020 55 218 0.0 0.0 0.00 0.00 0.00 73 1018.5
20260903014514 55 202 0.0 0.0 0.00 0.00 0.00 72 1018.5
20260903014009 55 202 0.0 0.0 0.00 0.00 0.00 72 1018.5
20260903013508 55 205 0.0 0.0 0.00 0.00 0.00 71 1018.5
20260903013009 55 205 0.0 0.0 0.00 0.00 0.00 71 1018.5
20260903012508 56 171 0.0 0.0 0.00 0.00 0.00 71 1018.9
20260903012006 56 171 0.0 0.0 0.00 0.00 0.00 71 1018.9
20260903011500 56 179 0.0 0.0 0.00 0.00 0.00 70 1018.9
20260903010951 56 179 0.0 0.0 0.00 0.00 0.00 70 1018.9
20260903010451 57 207 0.0 0.0 0.00 0.00 0.00 68 1018.5
20260903005948 57 207 0.0 0.0 0.00 0.00 0.00 68 1018.5
20260903005444 57 202 0.0 0.0 0.00 0.00 0.00 68 1018.5
20260903004940 58 177 0.0 0.0 0.00 0.00 0.00 66 1018.5
20260903004435 58 177 0.0 0.0 0.00 0.00 0.00 66 1018.5
20260903003931 58 190 0.0 0.0 0.00 0.00 0.00 66 1018.9
20260903003431 58 182 0.0 0.0 0.00 0.00 0.00 66 1018.9
20260903002926 59 171 0.0 0.0 0.00 0.00 0.00 66 1018.9
20260903002421 59 171 0.0 0.0 0.00 0.00 0.00 66 1018.9
20260903001921 58 199 0.0 0.0 0.00 0.00 0.00 66 1018.9
20260903001421 58 176 0.0 0.0 0.00 0.00 0.00 66 1018.9
20260903000920 58 197 0.0 0.0 0.00 0.00 0.00 65 1018.9
20260903000417 59 180 0.0 0.0 0.00 0.00 0.00 64 1018.9
20260902235914 59 180 0.0 0.0 0.00 0.00 0.00 64 1018.9
20260902235409 59 198 0.0 0.0 0.00 0.00 0.00 65 1018.9
20260902234909 59 198 0.0 0.0 0.00 0.00 0.00 65 1018.9
20260902234404 60 276 0.0 0.0 0.00 0.00 0.00 62 1018.5
20260902233903 60 276 0.0 0.0 0.00 0.00 0.00 62 1018.5
20260902233357 60 276 0.0 0.0 0.00 0.00 0.00 62 1018.5
20260902232856 60 134 0.0 0.0 0.00 0.00 0.00 61 1018.9
20260902232351 60 189 0.0 0.0 0.00 0.00 0.00 62 1018.5
20260902231851 61 133 0.0 0.0 0.00 0.00 0.00 60 1018.5
20260902231346 61 133 0.0 0.0 0.00 0.00 0.00 60 1018.5
20260902230840 62 220 0.0 0.0 0.00 0.00 0.00 60 1018.9
20260902230340 62 189 0.0 0.0 0.00 0.00 0.00 60 1018.9
20260902225834 62 180 0.0 0.0 0.00 0.00 0.00 60 1018.9
20260902225329 62 165 0.0 0.0 0.00 0.00 0.00 59 1018.9
20260902224827 63 179 0.0 0.0 0.00 0.00 0.00 59 1018.9
20260902224323 63 187 0.0 0.0 0.00 0.00 0.00 59 1018.9
20260902223820 63 199 0.0 0.0 0.00 0.00 0.00 59 1019.2
20260902223320 63 164 0.0 0.0 0.00 0.00 0.00 62 1019.6
20260902222819 63 228 0.0 0.0 0.00 0.00 0.00 60 1019.2
20260902222318 63 194 0.0 0.0 0.00 0.00 0.00 61 1019.2
20260902221433 64 204 0.0 0.0 0.00 0.00 0.00 58 1019.2
20260902220924 64 204 0.0 0.0 0.00 0.00 0.00 58 1019.2
20260902220423 65 184 0.0 0.0 0.00 0.00 0.00 56 1019.2
20260902215918 65 184 0.0 0.0 0.00 0.00 0.00 56 1019.2
20260902214228 66 206 0.0 0.0 0.00 0.00 0.00 54 1019.2
20260902213719 66 206 0.0 0.0 0.00 0.00 0.00 54 1019.2
20260902213218 66 206 0.0 0.0 0.00 0.00 0.00 54 1019.2
20260902212534 67 188 0.0 0.0 0.00 0.00 0.00 52 1019.6
20260902212030 67 188 0.0 0.0 0.00 0.00 0.00 52 1019.6
20260902211526 67 197 0.0 0.0 0.00 0.00 0.00 51 1019.6
20260902211021 68 86 0.0 0.0 0.00 0.00 0.00 49 1019.6
20260902210520 68 86 0.0 0.0 0.00 0.00 0.00 49 1019.6
20260902205648 69 171 0.0 0.0 0.00 0.00 0.00 48 1019.6
20260902205143 69 171 0.0 0.0 0.00 0.00 0.00 48 1019.6
20260902204638 69 221 0.0 0.0 0.00 0.00 0.00 47 1019.6
20260902204132 68 206 0.0 0.0 0.00 0.00 0.00 48 1019.6
20260902203628 68 227 0.0 0.0 0.00 0.00 0.00 48 1019.9
20260902203128 70 103 0.0 0.0 0.00 0.00 0.00 45 1019.9
20260902202623 70 103 0.0 0.0 0.00 0.00 0.00 45 1019.9
20260902202120 70 103 0.0 0.0 0.00 0.00 0.00 45 1019.9
20260902201616 70 146 0.0 0.0 0.00 0.00 0.00 46 1020.2
20260902201115 70 146 0.0 0.0 0.00 0.00 0.00 46 1020.2
20260902200610 69 96 0.0 0.0 0.00 0.00 0.00 46 1020.2
20260902200106 70 138 0.0 0.0 0.00 0.00 0.00 46 1020.2
20260902195601 70 138 0.0 0.0 0.00 0.00 0.00 46 1020.2
20260902195101 70 234 0.0 0.0 0.00 0.00 0.00 47 1020.2
20260902194600 70 198 0.0 0.0 0.00 0.00 0.00 45 1020.2
20260902194055 73 182 0.0 0.0 0.00 0.00 0.00 45 1020.6
20260902193552 73 182 0.0 0.0 0.00 0.00 0.00 45 1020.6
20260902193051 73 182 0.0 0.0 0.00 0.00 0.00 45 1020.6
20260902192549 73 198 0.0 0.0 0.00 0.00 0.00 45 1020.2
20260902192048 73 233 0.0 0.0 0.00 0.00 0.00 43 1020.6
20260902191544 72 164 0.0 0.0 0.00 0.00 0.00 45 1020.2
20260902191044 74 152 0.0 0.0 0.00 0.00 0.00 41 1020.6
20260902190539 74 152 0.0 0.0 0.00 0.00 0.00 41 1020.6
20260902190035 74 152 0.0 0.0 0.00 0.00 0.00 41 1020.6
20260902185531 73 52 0.0 0.0 0.00 0.00 0.00 43 1020.6
20260902185027 73 52 0.0 0.0 0.00 0.00 0.00 43 1020.6
20260902184521 73 184 0.0 0.0 0.00 0.00 0.00 44 1020.9
20260902184016 72 189 0.0 0.0 0.00 0.00 0.00 43 1020.6
20260902183513 73 178 0.0 0.0 0.00 0.00 0.00 43 1020.9
20260902183009 73 131 0.0 0.0 0.00 0.00 0.00 46 1020.9
20260902182505 71 171 0.0 0.0 0.00 0.00 0.00 45 1020.9
20260902182000 72 63 0.0 2.0 0.00 0.00 0.00 48 1021.3
20260902181456 72 63 0.0 2.0 0.00 0.00 0.00 48 1021.3
20260902180951 72 63 0.0 2.0 0.00 0.00 0.00 48 1021.3
20260902180445 73 136 0.0 0.0 0.00 0.00 0.00 50 1021.3
20260902175941 72 147 0.0 0.0 0.00 0.00 0.00 51 1020.9
20260902175436 70 256 0.0 0.0 0.00 0.00 0.00 50 1021.3
20260902174931 70 256 0.0 0.0 0.00 0.00 0.00 50 1021.3
20260902174428 69 173 0.0 2.0 0.00 0.00 0.00 52 1021.3
20260902173924 69 210 0.0 0.0 0.00 0.00 0.00 48 1021.3
20260902173422 72 198 0.0 0.0 0.00 0.00 0.00 49 1021.3
20260902172918 71 250 0.0 0.0 0.00 0.00 0.00 47 1021.3
20260902172417 68 149 0.0 0.0 0.00 0.00 0.00 52 1021.6
20260902171912 68 149 0.0 0.0 0.00 0.00 0.00 52 1021.6
20260902171408 68 259 0.0 0.0 0.00 0.00 0.00 51 1021.6
20260902170904 69 155 0.0 8.0 0.00 0.00 0.00 50 1021.6
20260902170359 69 227 0.0 0.0 0.00 0.00 0.00 52 1021.6
20260902165854 72 73 0.0 0.0 0.00 0.00 0.00 49 1021.6
20260902165353 72 66 0.0 0.0 0.00 0.00 0.00 51 1021.3
20260902164848 72 220 0.0 0.0 0.00 0.00 0.00 49 1021.6
20260902164343 70 184 1.0 2.0 0.00 0.00 0.00 50 1021.6
20260902163842 70 184 1.0 2.0 0.00 0.00 0.00 50 1021.6
20260902163337 71 136 0.0 0.0 0.00 0.00 0.00 52 1021.6
20260902162835 68 205 0.0 0.0 0.00 0.00 0.00 53 1021.9
20260902162330 68 205 0.0 0.0 0.00 0.00 0.00 53 1021.9
20260902161825 69 225 0.0 0.0 0.00 0.00 0.00 53 1021.9
20260902161321 67 62 0.0 0.0 0.00 0.00 0.00 62 1021.9
20260902160817 67 62 0.0 2.0 0.00 0.00 0.00 62 1021.9
20260902160312 67 157 0.0 0.0 0.00 0.00 0.00 61 1021.9
20260902155809 67 166 0.0 0.0 0.00 0.00 0.00 62 1021.9
20260902155308 68 209 0.0 0.0 0.00 0.00 0.00 62 1021.9
20260902154804 67 216 0.0 0.0 0.00 0.00 0.00 64 1021.9
20260902154300 67 216 0.0 0.0 0.00 0.00 0.00 64 1021.9
20260902153758 67 211 0.0 0.0 0.00 0.00 0.00 65 1021.9
20260902153253 67 211 0.0 0.0 0.00 0.00 0.00 65 1021.9
20260902152748 66 96 0.0 0.0 0.00 0.00 0.00 65 1022.4
20260902152244 68 176 0.0 8.0 0.00 0.00 0.00 63 1021.9
20260902151739 68 176 0.0 8.0 0.00 0.00 0.00 63 1021.9
20260902151234 68 97 1.0 5.0 0.00 0.00 0.00 64 1021.9
20260902150729 67 190 0.0 0.0 0.00 0.00 0.00 66 1021.9
20260902150225 67 190 0.0 0.0 0.00 0.00 0.00 66 1021.9
20260902145725 66 178 0.0 0.0 0.00 0.00 0.00 66 1021.9
20260902145225 66 110 0.0 0.0 0.00 0.00 0.00 67 1021.9
20260902144720 66 110 0.0 0.0 0.00 0.00 0.00 67 1021.9
20260902143850 65 192 0.0 0.0 0.00 0.00 0.00 70 1022.4